DL2ZZM-13 Weather Reports


time (UTC)temp
C
wind
direction
speed
KPH
gust
KPH
rain 1hr
cm
rain 24hr
cm
rain mn
cm
humidity
%
barometer
mb
20260507122316 12 248 3.2 9.7 0.00 2.97 0.15 83 1015.9
20260507121317 11 293 9.7 14.5 0.00 2.97 0.15 83 1015.9
20260507120316 11 315 9.7 17.7 0.00 2.97 0.15 81 1015.8
20260507115316 11 293 9.7 14.5 0.00 2.97 0.15 85 1015.7
20260507114317 10 293 12.9 16.1 0.00 2.97 0.15 85 1015.8
20260507113316 10 270 8.0 12.9 0.00 2.97 0.15 89 1015.9
20260507112316 9 293 6.4 11.3 0.00 2.97 0.15 89 1015.8
20260507111338 9 315 11.3 17.7 0.00 2.97 0.15 89 1015.9
20260507110316 9 248 6.4 9.7 0.00 2.97 0.15 91 1015.9
20260507105316 8 293 9.7 12.9 0.00 2.97 0.15 93 1016.0
20260507104316 8 293 6.4 9.7 0.00 2.97 0.15 93 1016.0
20260507103316 8 270 9.7 14.5 0.00 2.97 0.15 93 1016.1
20260507102336 7 248 8.0 11.3 0.00 2.97 0.15 93 1016.0
20260507101316 7 270 8.0 11.3 0.03 2.97 0.15 93 1015.9
20260507100336 8 225 6.4 11.3 0.03 2.97 0.15 93 1015.9
20260507095316 7 293 6.4 9.7 0.03 2.97 0.15 93 1015.7
20260507094316 8 293 11.3 16.1 0.03 2.97 0.15 93 1015.5
20260507093316 8 225 8.0 14.5 0.03 2.97 0.15 94 1015.4
20260507092316 8 293 6.4 9.7 0.05 2.97 0.15 94 1015.3
20260507091316 8 293 12.9 17.7 0.05 2.95 0.13 94 1015.3
20260507090316 8 293 6.4 11.3 0.05 2.95 0.13 94 1015.1
20260507085316 8 293 4.8 12.9 0.05 2.95 0.13 95 1015.0
20260507084336 8 270 6.4 14.5 0.05 2.95 0.13 95 1014.9
20260507083316 7 293 9.7 14.5 0.05 2.95 0.13 95 1014.8
20260507082316 7 270 8.0 14.5 0.05 2.92 0.10 95 1014.7
20260507081336 8 225 8.0 14.5 0.05 2.90 0.08 95 1014.6
20260507080316 7 270 6.4 9.7 0.05 2.90 0.08 95 1014.4
20260507075316 7 293 9.7 16.1 0.05 2.90 0.08 95 1014.3
20260507074316 7 293 11.3 16.1 0.05 2.90 0.08 95 1014.2
20260507073416 7 293 12.9 20.9 0.05 2.87 0.05 95 1014.0
20260507072316 7 225 8.0 14.5 0.03 2.87 0.05 95 1013.9
20260507071316 7 248 6.4 11.3 0.03 2.87 0.05 95 1013.7
20260507070316 7 248 8.0 12.9 0.03 2.87 0.05 95 1013.8
20260507065336 7 248 9.7 16.1 0.00 2.84 0.03 95 1013.7
20260507064336 7 248 6.4 12.9 0.00 2.84 0.03 95 1013.6
20260507063315 7 225 8.0 11.3 0.03 2.84 0.03 95 1013.5
20260507062316 7 248 8.0 14.5 0.03 2.84 0.03 95 1013.5
20260507061315 7 270 11.3 16.1 0.03 2.84 0.03 95 1013.3
20260507060315 7 248 6.4 12.9 0.03 2.84 0.03 95 1013.2
20260507055316 7 225 8.0 12.9 0.03 2.84 0.03 95 1013.1
20260507054316 7 270 6.4 11.3 0.03 2.84 0.03 95 1013.0
20260507053315 7 225 8.0 11.3 0.00 2.82 0.00 95 1013.0
20260507052316 7 270 8.0 16.1 0.00 2.82 0.00 95 1012.8
20260507051315 7 225 11.3 14.5 0.00 2.82 0.00 95 1012.8
20260507050315 7 248 8.0 12.9 0.00 2.82 0.00 95 1012.7
20260507045335 7 248 9.7 16.1 0.00 2.82 0.00 95 1012.6
20260507044316 7 225 9.7 16.1 0.00 2.82 0.00 95 1012.5
20260507043316 7 248 14.5 17.7 0.00 2.82 0.00 95 1012.3
20260507042335 6 248 8.0 14.5 0.00 2.82 0.00 95 1012.2
20260507041315 6 225 6.4 8.0 0.00 2.82 0.00 95 1012.1
20260507040315 6 203 6.4 8.0 0.00 2.82 0.00 95 1012.0
20260507035336 6 225 3.2 4.8 0.00 2.82 0.00 95 1011.9
20260507034315 6 203 4.8 6.4 0.00 2.82 0.00 95 1011.8
20260507033315 6 203 6.4 8.0 0.00 2.82 0.00 95 1011.8
20260507032335 6 203 4.8 8.0 0.00 2.82 0.00 95 1011.6
20260507031315 6 248 4.8 6.4 0.00 2.82 0.00 95 1011.7
20260507030335 6 225 8.0 9.7 0.00 2.82 0.00 95 1011.6
20260507025315 6 203 6.4 8.0 0.00 2.84 0.00 95 1011.6
20260507024315 6 248 4.8 8.0 0.00 2.84 0.00 95 1011.5
20260507023335 6 203 6.4 8.0 0.00 2.84 0.00 95 1011.4
20260507022315 6 225 6.4 8.0 0.00 2.84 0.00 95 1011.6
20260507021315 6 203 4.8 6.4 0.00 2.84 0.00 95 1011.5
20260507020315 6 225 4.8 6.4 0.00 2.84 0.00 95 1011.5
20260507015315 6 203 4.8 6.4 0.00 2.84 0.00 95 1011.4
20260507014317 6 203 3.2 4.8 0.00 2.84 0.00 95 1011.4
20260507013317 6 225 3.2 4.8 0.00 2.84 0.00 95 1011.3
20260507012317 6 225 3.2 4.8 0.00 2.84 0.00 95 1011.3
20260507011317 6 203 4.8 6.4 0.00 2.84 0.00 94 1011.2
20260507010317 6 203 4.8 6.4 0.00 2.84 0.00 94 1011.1
20260507005317 6 225 6.4 11.3 0.00 2.84 0.00 95 1011.2
20260507004337 6 270 3.2 6.4 0.00 2.84 0.00 94 1011.0
20260507003317 6 225 6.4 9.7 0.00 2.84 0.00 94 1011.1
20260507002317 6 225 8.0 11.3 0.00 2.84 0.00 94 1011.1
20260507001317 6 248 11.3 17.7 0.00 2.84 0.00 94 1011.0
20260507000317 6 248 12.9 16.1 0.00 2.84 0.00 94 1011.2
20260506235315 7 225 11.3 16.1 0.00 2.84 0.00 94 1011.3
20260506234317 7 248 12.9 19.3 0.00 2.84 0.00 95 1011.3
20260506233317 7 248 12.9 19.3 0.00 2.84 0.00 95 1011.3
20260506232317 7 225 9.7 12.9 0.00 2.84 0.00 95 1011.3
20260506231317 7 270 8.0 14.5 0.00 2.84 0.00 95 1011.3
20260506230317 7 248 6.4 11.3 0.00 2.84 0.00 95 1011.3
20260506225317 7 270 3.2 4.8 0.00 2.84 0.00 95 1011.2
20260506224317 7 248 6.4 11.3 0.00 2.84 0.00 95 1011.3
20260506223317 8 248 4.8 8.0 0.00 2.84 0.00 95 1011.2
20260506222317 8 225 9.7 14.5 0.00 2.84 0.00 95 1011.1
20260506221337 8 248 8.0 12.9 0.00 2.84 0.00 95 1011.0
20260506220317 8 270 4.8 8.0 0.00 2.84 0.00 95 1011.0
20260506215316 8 225 6.4 11.3 0.00 2.84 2.84 95 1010.9
20260506214315 8 248 6.4 9.7 0.00 2.84 2.84 95 1010.8
20260506213316 8 225 6.4 9.7 0.00 2.84 2.84 95 1010.8
20260506212315 8 225 6.4 9.7 0.00 2.84 2.84 95 1010.7
20260506211335 8 225 6.4 11.3 0.00 2.84 2.84 95 1010.6
20260506210316 8 225 8.0 11.3 0.00 2.84 2.84 95 1010.5
20260506205315 8 248 8.0 12.9 0.00 2.84 2.84 95 1010.4
20260506204316 8 248 8.0 9.7 0.00 2.84 2.84 94 1010.5
20260506203316 8 225 8.0 9.7 0.00 2.84 2.84 94 1010.5
20260506202336 8 203 6.4 9.7 0.00 2.84 2.84 95 1010.5
20260506201315 8 225 4.8 9.7 0.00 2.84 2.84 95 1010.4
20260506200315 8 225 3.2 4.8 0.00 2.84 2.84 94 1010.2
20260506195316 8 225 8.0 12.9 0.00 2.87 2.84 94 1010.3
20260506194316 8 225 6.4 9.7 0.00 2.87 2.84 94 1010.1
20260506193315 8 248 4.8 8.0 0.00 2.87 2.84 94 1010.0
20260506192315 8 248 8.0 9.7 0.00 2.87 2.84 94 1009.9
20260506191335 8 270 6.4 11.3 0.00 2.87 2.84 94 1009.9
20260506190315 9 248 9.7 16.1 0.00 2.87 2.84 94 1009.7
20260506185315 9 225 6.4 11.3 0.00 2.87 2.84 94 1009.5
20260506184315 9 248 8.0 11.3 0.03 2.87 2.84 94 1009.5
20260506183315 9 248 8.0 11.3 0.03 2.87 2.84 94 1009.3
20260506182315 10 248 6.4 8.0 0.08 2.87 2.84 94 1009.2
20260506181315 9 225 4.8 6.4 0.18 2.87 2.84 94 1009.1
20260506180335 9 293 4.8 6.4 0.33 2.87 2.84 94 1008.9
20260506175315 9 293 4.8 8.0 0.48 2.87 2.84 93 1008.9
20260506174315 9 293 6.4 9.7 0.64 2.84 2.82 93 1008.6
20260506173315 9 315 8.0 12.9 0.61 2.82 2.82 93 1008.4
20260506172317 10 293 11.3 14.5 0.58 2.77 2.77 93 1008.4
20260506171338 10 293 4.8 9.7 0.48 2.69 2.67 93 1008.4
20260506170317 10 315 11.3 17.7 0.33 2.54 2.51 93 1008.4
20260506165317 10 248 8.0 14.5 0.18 2.39 2.36 92 1008.5
20260506164317 10 293 9.7 14.5 0.03 2.21 2.18 92 1008.3
20260506163317 10 315 12.9 19.3 0.13 2.21 2.18 92 1008.3
20260506162317 10 315 12.9 17.7 0.30 2.21 2.18 92 1008.0
20260506161317 10 315 8.0 12.9 1.14 2.21 2.18 91 1007.9
20260506160317 10 293 8.0 14.5 2.08 2.21 2.18 91 1008.0
20260506155457 10 315 9.7 14.5 2.16 2.21 2.18 91 1007.9
20260506154317 10 315 6.4 12.9 2.13 2.18 2.16 89 1007.8
20260506153317 11 315 6.4 8.0 2.03 2.08 2.06 88 1008.0
20260506152317 11 0 4.8 6.4 1.85 1.91 1.88 86 1007.8
20260506151317 12 68 4.8 6.4 1.02 1.07 1.04 83 1007.5
20260506150317 14 113 1.6 4.8 0.08 0.13 0.10 79 1007.2
20260506145317 15 315 4.8 12.9 0.00 0.05 0.03 77 1006.8
20260506144317 15 315 4.8 6.4 0.00 0.05 0.03 76 1006.8
20260506142317 15 0.0 0.0 0.00 0.05 0.03 76 1007.1
20260506141317 15 338 1.6 4.8 0.00 0.05 0.03 75 1007.0
20260506140357 16 315 3.2 6.4 0.00 0.05 0.03 73 1007.0
20260506135317 16 45 3.2 3.2 0.00 0.25 0.03 72 1007.0
20260506134317 16 248 3.2 4.8 0.00 0.25 0.03 72 1007.1
20260506133317 17 248 3.2 6.4 0.00 0.25 0.03 71 1007.0
20260506132317 17 293 6.4 9.7 0.00 0.25 0.03 72 1007.1
20260506131336 16 315 3.2 4.8 0.00 0.25 0.03 74 1007.1
20260506130316 16 270 3.2 9.7 0.00 0.25 0.03 75 1007.2
20260506125316 16 293 4.8 6.4 0.00 0.25 0.03 75 1007.3
20260506124316 15 248 1.6 4.8 0.00 0.25 0.03 76 1007.2
20260506123317 15 270 1.6 4.8 0.00 0.25 0.03 76 1007.3